This is the latest recevied weather packets stored in our database for station/object CALDNA-WX. If no packets are shown the sender has not sent any weather packets the latest 10 day(s).
| Time | Temp. | Humidity | Pressure | Rain* | Wind** | Luminosity | Snow |
|---|---|---|---|---|---|---|---|
| 1777968050 | 11.67° C | 48% | 973.6 hPa | 0 mm | - | - | - |
| 1777967124 | 12.22° C | 74% | 972.9 hPa | 0 mm | - | - | - |
| 1777966244 | 12.78° C | 74% | 972.9 hPa | 0 mm | - | - | - |
| 1777965324 | 13.33° C | 74% | 972.9 hPa | 0 mm | - | - | - |
| 1777964452 | 13.33° C | 74% | 972.9 hPa | 0 mm | - | - | - |
| 1777963523 | 13.33° C | 67% | 973.3 hPa | 0 mm | - | - | - |
| 1777962640 | 13.89° C | 76% | 972.7 hPa | 0 mm | - | - | - |
| 1777961724 | 13.89° C | 76% | 972.7 hPa | 0 mm | - | - | - |
| 1777960856 | 13.89° C | 76% | 972.7 hPa | 0 mm | - | - | - |
| 1777959924 | 14.44° C | 72% | 974 hPa | 0 mm | - | - | - |
| 1777959046 | 14.44° C | 63% | 972.5 hPa | 0 mm | - | - | - |
| 1777958123 | 15.56° C | 63% | 972.6 hPa | 0 mm | - | - | - |
| 1777957248 | 16.11° C | 63% | 972.6 hPa | 0 mm | - | - | - |
| 1777956323 | 16.11° C | 63% | 972.2 hPa | 0 mm | - | - | - |
| 1777955445 | 16.11° C | 59% | 972.2 hPa | 0 mm | - | - | - |
| 1777954523 | 16.67° C | 59% | 972.4 hPa | 0 mm | - | - | - |
| 1777953653 | 17.22° C | 59% | 972.4 hPa | 0 mm | - | - | - |
| 1777952720 | 17.22° C | 58% | 972.2 hPa | 0 mm | - | - | - |
| 1777951843 | 16.67° C | 62% | 972.2 hPa | 0 mm | - | - | - |
| 1777950923 | 16.67° C | 62% | 972.2 hPa | 0 mm | - | - | - |
| 1777950051 | 16.67° C | 62% | 972.2 hPa | 0 mm | - | - | - |
| 1777949123 | 17.22° C | 54% | 972.5 hPa | 0 mm | - | - | - |
| 1777948244 | 17.78° C | 59% | 972.5 hPa | 0 mm | - | - | - |
| 1777947323 | 17.22° C | 59% | 972.4 hPa | 0 mm | - | - | - |
| 1777946451 | 17.78° C | 59% | 972.4 hPa | 0 mm | - | - | - |
* Rain latest hour (hover to see other rain measurements)
** Current wind speed in m/s (hover to see current wind gust speed)